This is the latest recevied weather packets stored in our database for station/object K5BOU. If no packets are shown the sender has not sent any weather packets the latest 10 day(s).
| Time | Temp. | Humidity | Pressure | Rain* | Wind** | Luminosity | Snow |
|---|---|---|---|---|---|---|---|
| 1778023504 | 27.22° C | 87% | 1004.5 hPa | 0 mm | - | 94 W/m² | - |
| 1778023201 | 27.22° C | 87% | 1004.5 hPa | 0 mm | - | 94 W/m² | - |
| 1778022897 | 27.22° C | 87% | 1004.8 hPa | 0 mm | - | 97 W/m² | - |
| 1778022596 | 27.22° C | 87% | 1004.7 hPa | 0 mm | - | 97 W/m² | - |
| 1778022293 | 27.78° C | 87% | 1004.7 hPa | 0 mm | - | 104 W/m² | - |
| 1778021989 | 27.22° C | 86% | 1004.8 hPa | 0 mm | - | 145 W/m² | - |
| 1778021687 | 27.78° C | 87% | 1004.6 hPa | 0 mm | - | 171 W/m² | - |
| 1778021383 | 27.78° C | 86% | 1004.7 hPa | 0 mm | - | 167 W/m² | - |
| 1778021079 | 27.78° C | 86% | 1004.9 hPa | 0 mm | - | 137 W/m² | - |
| 1778020777 | 27.78° C | 87% | 1004.8 hPa | 0 mm | - | 152 W/m² | - |
| 1778020474 | 27.78° C | 87% | 1005 hPa | 0 mm | - | 129 W/m² | - |
| 1778020170 | 27.78° C | 87% | 1004.7 hPa | 0 mm | - | 144 W/m² | - |
| 1778019866 | 27.78° C | 87% | 1004.7 hPa | 0 mm | - | 153 W/m² | - |
| 1778019562 | 28.33° C | 87% | 1004.7 hPa | 0 mm | - | 195 W/m² | - |
| 1778019260 | 27.78° C | 87% | 1004.8 hPa | 0 mm | - | 226 W/m² | - |
| 1778018957 | 27.78° C | 87% | 1004.7 hPa | 0 mm | - | 307 W/m² | - |
| 1778018654 | 27.78° C | 87% | 1005 hPa | 0 mm | - | 204 W/m² | - |
| 1778018351 | 27.78° C | 87% | 1005 hPa | 0 mm | - | 232 W/m² | - |
| 1778018049 | 27.78° C | 86% | 1005.1 hPa | 0 mm | - | 209 W/m² | - |
| 1778017747 | 28.33° C | 86% | 1005 hPa | 0 mm | - | 229 W/m² | - |
| 1778017444 | 27.78° C | 86% | 1004.9 hPa | 0 mm | - | 221 W/m² | - |
| 1778017141 | 28.33° C | 86% | 1005.1 hPa | 0 mm | - | 239 W/m² | - |
| 1778016839 | 28.33° C | 85% | 1005.4 hPa | 0 mm | - | 296 W/m² | - |
| 1778016535 | 28.33° C | 86% | 1005.5 hPa | 0 mm | - | 380 W/m² | - |
| 1778016232 | 28.33° C | 86% | 1005.5 hPa | 0 mm | - | 346 W/m² | - |
* Rain latest hour (hover to see other rain measurements)
** Current wind speed in m/s (hover to see current wind gust speed)